Overview Statistics Trail Chart Weather Telemetry Raw packets
 

This is the latest recevied weather packets stored in our database for station/object KD7CTY. If no packets are shown the sender has not sent any weather packets the latest 10 day(s).

<< 9 10 11 12 13 14 15 >>
Time Temp. Humidity Pressure Rain* Wind** Luminosity Snow
1788539297 13.33° C 89% 1012.7 hPa 0 mm - 114 W/m² -
1788538993 13.33° C 90% 1012.7 hPa 0 mm - 124 W/m² -
1788538688 12.78° C 91% 1012.9 hPa 0 mm - 106 W/m² -
1788538387 13.33° C 92% 1012.7 hPa 0 mm - 82 W/m² -
1788538083 12.78° C 92% 1012.8 hPa 0 mm - 82 W/m² -
1788537778 12.78° C 92% 1012.4 hPa 0 mm - 85 W/m² -
1788537478 12.78° C 92% 1012.5 hPa 0 mm - 69 W/m² -
1788537178 13.33° C 92% 1012.7 hPa 0 mm - 67 W/m² -
1788536877 13.33° C 91% 1012.6 hPa 0 mm - 72 W/m² -
1788536572 13.33° C 91% 1012.6 hPa 0 mm - 84 W/m² -
1788536267 13.33° C 91% 1012.6 hPa 0 mm - 86 W/m² -
1788535963 13.33° C 91% 1012.4 hPa 0 mm - 76 W/m² -
1788535659 13.33° C 92% 1012.5 hPa 0 mm - 58 W/m² -
1788535354 13.33° C 94% 1012.2 hPa 0 mm - 47 W/m² -
1788535049 12.78° C 96% 1012.3 hPa 0 mm - 53 W/m² -
1788534748 12.78° C 98% 1012.4 hPa 0 mm - 59 W/m² -
1788534445 12.78° C 99% 1012.1 hPa 0 mm - 76 W/m² -
1788534139 12.22° C 99% 1011.9 hPa 0 mm - 81 W/m² -
1788533837 11.67° C 99% 1012.1 hPa 0 mm - 96 W/m² -
1788533533 11.67° C 99% 1011.8 hPa 0 mm - 98 W/m² -
1788533228 11.11° C 99% 1012.3 hPa 0 mm - 80 W/m² -
1788532924 11.11° C 99% 1012 hPa 0 mm - 59 W/m² -
1788532619 10.56° C 99% 1011.7 hPa 0 mm - 34 W/m² -
1788532316 10.56° C 99% 1011.9 hPa 0 mm - 23 W/m² -
1788532012 10.56° C 99% 1011.7 hPa 0 mm - 17 W/m² -

* Rain latest hour (hover to see other rain measurements)
** Current wind speed in m/s (hover to see current wind gust speed)